Вернуться в каталог

FENGYUN 1C DEB

АктивенPO
NORAD 31495·DEBRIS·🇨🇳 China

Запущен May 10, 1999 с Taiyuan Satellite Launch Center

Loading…

Ближайшие Пролёты (ближайшие 24 часа)

TLE

УстаревающийSource: Space-Track

Эпоха: Sep 9, 2026, 23:02 UTC

1 31495U 99025BWJ 26252.95996031  .00001611  00000-0  63246-3 0  9999
2 31495  99.0967 143.6831 0026522 109.5390 250.8659 14.30645090672679

Отслеживайте FENGYUN 1C DEB в реальном времени с AllMySat

Download on the App Store